Location: Big Prairie
(40.6673°N, 82.0952°W)
Time: 18:42:43
(UTC+00:00)

Meteor 1-26 Rocket - Pass Details

Date: 03 December 2021
Orbit: 807 x 928 km, 81.3° (Epoch: 16 January)

Event Time Altitude Azimuth Distance (km) Brightness Sun altitude
Rises 23:08:16 0° 185° (S) 3,506 7.8 -12.4°
Reaches altitude 10° 23:10:41 10° 185° (S) 2,584 7.0 -12.9°
Maximum altitude 23:16:37 84° 98° (E) 932 4.3 -13.9°
Drops below altitude 10° 23:22:41 10° 11° (N) 2,640 6.5 -15.0°
Sets 23:25:11 0° 11° (N) 3,588 7.2 -15.5°
